sat.trackr.live / text

‹ back to catalog

KUIPER-00410

NORAD 68926 · 2026-098H

PAYLOAD ACTIVE UNKNOWN

§ Identity

Operator
Country
US
Launch date
2026-04-30
Launch site
FRGUI
Launch vehicle
Mass (kg)
RCS (m²)

External: N2YO · Heavens-Above · Gunter

§ Orbital elements

Epoch: 2026-09-19T15:07:55.065216Z

Period
97.30 min
Inclination
51.8990°
Eccentricity
0.0000710
Mean motion
14.79928098 rev/d
Perigee alt
629.1 km
Apogee alt
630.0 km
Semi-major
7,007.7 km
B*
1.1861e-4
RAAN
358.0163°
Arg perigee
154.7105°
Mean anomaly
205.3892°
Rev number
2,150

§ Raw data

KUIPER-004101 68926U 26098H   26262.63049844  .00000683  00000+0  11861-3 0  99982 68926  51.8990 358.0163 0000710 154.7105 205.3892 14.79928098 21506

JSON: /api/v1/satellites/68926 · /tle

For live sub-satellite position, see the globe view (requires WebGL).

§ Visibility from observer

Set your observer location to see the next 7 days of passes ≥ 10°. The values pass through the URL so the page stays shareable.

No JS? Fill the form by hand. The geolocation button needs JavaScript.